This is the latest recevied weather packets stored in our database for station/object HOWARD. If no packets are shown the sender has not sent any weather packets the latest 10 day(s).
| Time | Temp. | Humidity | Pressure | Rain* | Wind** | Luminosity | Snow |
|---|---|---|---|---|---|---|---|
| 1787802275 | 17.78° C | 34% | 1021.1 hPa | 0 mm | - | - | - |
| 1787801675 | 17.78° C | 34% | 1021.2 hPa | 0 mm | - | - | - |
| 1787801075 | 18.33° C | 33% | 1021.1 hPa | 0 mm | - | - | - |
| 1787800475 | 18.33° C | - | 1021.1 hPa | 0 mm | - | - | - |
| 1787799875 | 17.78° C | 33% | 1021.1 hPa | 0 mm | - | - | - |
| 1787799275 | 18.33° C | 33% | 1021 hPa | 0 mm | - | - | - |
| 1787798675 | 18.33° C | 32% | 1020.9 hPa | 0 mm | - | - | - |
| 1787798075 | 18.33° C | 32% | 1020.9 hPa | 0 mm | - | - | - |
| 1787797475 | 18.89° C | 31% | 1020.7 hPa | 0 mm | - | - | - |
| 1787796876 | 19.44° C | 31% | 1020.7 hPa | 0 mm | - | - | - |
| 1787796274 | 20° C | 29% | 1020.6 hPa | 0 mm | - | - | - |
| 1787795675 | 20.56° C | 29% | 1020.8 hPa | 0 mm | - | - | - |
| 1787795075 | 21.67° C | 27% | 1020.7 hPa | 0 mm | - | - | - |
| 1787794474 | 20.56° C | - | 1020.8 hPa | 0 mm | - | - | - |
| 1787793875 | 20.56° C | 26% | 1020.7 hPa | 0 mm | - | - | - |
| 1787793274 | 20.56° C | 27% | 1020.8 hPa | 0 mm | - | - | - |
| 1787792710 | 20.56° C | 26% | 1020.6 hPa | 0 mm | - | - | - |
| 1787792674 | 20.56° C | 26% | 1020.6 hPa | 0 mm | - | - | - |
| 1787792075 | 20.56° C | 26% | 1020.8 hPa | 0 mm | - | - | - |
| 1787791474 | 20.56° C | 27% | 1020.7 hPa | 0 mm | - | - | - |
| 1787790874 | 20.56° C | 26% | 1020.7 hPa | 0 mm | - | - | - |
| 1787790274 | 20.56° C | 26% | 1020.8 hPa | 0 mm | - | - | - |
| 1787789675 | 20.56° C | 26% | 1020.7 hPa | 0 mm | - | - | - |
| 1787789074 | 22.22° C | - | 1020.9 hPa | 0 mm | - | - | - |
| 1787788540 | 20.56° C | 24% | 1020.9 hPa | 0 mm | - | - | - |
* Rain latest hour (hover to see other rain measurements)
** Current wind speed in m/s (hover to see current wind gust speed)